Flag for U.S.A. Weather past 2 weeks in Jacksonville, North Carolina, U.S.A.

Now
78 °F

Partly sunny.


Feels Like: 80 °F
Forecast: 65 / 80 °F
Wind: 10 mph from East

Location: Jacksonville - New River

Current Time: Sep 18, 2014 at 6:47:13 PM

Latest Report: Sep 18, 2014 at 5:56 PM


Visibility: 10 mi

Pressure: 29.98 "Hg

Humidity: 58%

Dew point: 62 °F

Location of JacksonvilleLocation

Historic Weather in Jacksonville — Graph

°F

Jacksonville temperature yesterday

Maximum temperature yesterday: 83 °F (at 2:56 PM)
Minimum temperature yesterday: 68 °F (at 5:56 AM)
Average temperature yesterday: 73 °F

Past Weeks' High & Low Weather Summary

 TemperatureHumidityPressure
High89 °F (Sep 4, 2:56 PM)100% (Sep 7, 3:56 PM)30.23 "Hg (Sep 7, 3:56 PM)
Low66 °F (Sep 18, 5:56 AM)51% (Sep 18, 12:56 PM)29.88 "Hg (Sep 17, 3:56 PM)
Average76 °F85%30.06 "Hg
* Reported Sep 3 4:56 PM — Sep 18 4:56 PM, Jacksonville, Weather by CustomWeather, © 2014

Note: Actual official high and low records may vary slightly from our data, if they occured in-between our weather recording intervals... More about our weather records

Advertising

Jacksonville weather history for previous 24 hours

 ConditionsComfort  
Time TempWeatherWind HumidityBarometerVisibility
4:56 PM
Sep 18
80 °FSunny.9 mph52%29.97 "Hg10 mi
3:56 PM81 °FScattered clouds.9 mph53%29.96 "Hg10 mi
2:56 PM80 °FBroken clouds.7 mph52%29.97 "Hg10 mi
1:56 PM81 °FBroken clouds.8 mph53%29.98 "Hg10 mi
12:56 PM80 °FSunny.6 mph51%29.99 "Hg10 mi
11:56 AM79 °FSunny.9 mph52%29.99 "Hg10 mi
10:56 AM77 °FSunny.10 mph62%29.99 "Hg10 mi
9:56 AM75 °FSunny.12 mph71%29.97 "Hg10 mi
8:56 AM69 °FOvercast.6 mph81%29.97 "Hg10 mi
7:56 AM67 °FScattered clouds.3 mph87%29.95 "Hg10 mi
6:56 AM66 °FPassing clouds.3 mph90%29.94 "Hg10 mi
5:56 AM66 °FPassing clouds.5 mph90%29.93 "Hg10 mi
4:56 AM67 °FMostly cloudy.3 mph87%29.92 "Hg10 mi
3:56 AM67 °FClear.3 mph87%29.90 "Hg10 mi
2:56 AM67 °FClear.6 mph87%29.90 "Hg10 mi
1:56 AM67 °FPassing clouds.5 mph90%29.92 "Hg10 mi
12:56 AM68 °FClear.3 mph87%29.93 "Hg10 mi
11:56 PM
Sep 17
68 °FClear.5 mph87%29.93 "Hg10 mi
10:56 PM69 °FPassing clouds.5 mph84%29.93 "Hg10 mi
9:56 PM71 °FPassing clouds.5 mph78%29.94 "Hg10 mi
8:56 PM72 °FPassing clouds.7 mph81%29.92 "Hg10 mi
7:56 PM73 °FPartly sunny.9 mph81%29.91 "Hg10 mi
6:56 PM74 °FSunny.12 mph82%29.89 "Hg10 mi
Weather by CustomWeather, © 2014

See weather overviewHow to use our weather pages